User: anonymous   Login
Location: Nijmegen RU
(51.8233°N, 354.1314°E)
Time: 08:29:06
(UTC+02:00)
Language:

Envisat - Orbit

View from above orbital plane
View from above orbital plane
View from above satellite
View from above satellite

Ground track
Ground track

The orbit data is extracted from the following two-line orbital elements,

1 27386U 02009A   19290.68352352 -.00000009  00000-0  10404-4 0  9995
2 27386  98.1451 305.4948 0001178  92.6868  13.5467 14.37959902923587
Epoch (UTC): 17 October 2019 16:24:16
Eccentricity: 0.0001178
inclination: 98.1451°
perigee height: 764 km
apogee height: 766 km
right ascension of ascending node: 305.4948°
argument of perigee: 92.6868°
revolutions per day: 14.37959902
mean anomaly at epoch: 13.5467°
orbit number at epoch: 92358

The dashed part of the orbit path shows where the satellite is in the earth's shadow,  

DLR